Reflectivity
-20 -20 -20 -20 -20 -20 -20 -20 -20 -20 -20 -20 -20 -20 -20 -20 -20 -3 37 -7 -20 -20 -20 -20 -20 -20 -20 -20 -20 -20 -20 -20 -19 14 25 -3 29 -2 -20 -2 -8 -4 14 -14 16 1 -11 -9 -18
-20 -20 -20 -20 -20 -20 -20 -20 -20 -20 -20 -20 -20 -20 -20 -20 -20 -20 -7 -20 -20 -20 -20 -20 -20 -20 -20 -20 -20 -20 -20 -20 9 6 12 -20 26 30 -20 -10 -14 19 33 29 5 8 -2 -16 -3
-20 -20 -20 -20 -20 -20 -20 -20 -20 -20 -20 -20 -20 -20 -20 -20 -20 -20 -20 -20 -20 -20 -20 -20 -20 -20 -20 -20 -20 -20 21 -20 29 28 -20 15 28 26 17 2 30 30 28 14 6 -0 2 -20 -20
-20 -20 -20 -20 -20 -20 -20 -20 -20 -20 -20 -20 -20 -20 -20 -20 -20 -20 -20 -20 -20 -20 -20 -20 -20 -20 -20 -20 -20 -20 -14 -9 34 22 20 24 23 -6 33 30 36 39 25 25 5 -2 -20 -20 -20
-20 -20 -20 -20 -20 -20 -20 -20 -20 -20 -20 -20 -20 -20 -20 -20 -20 -20 -20 -20 -20 -20 -20 -20 -20 -20 -20 -20 -20 -20 10 18 32 24 22 23 13 24 33 27 32 32 20 25 24 12 -20 -20 -20
-20 -20 -20 -20 -20 -20 -20 -20 -20 -20 -20 -20 -20 -20 -20 -20 -20 -20 -20 -20 -20 -20 -20 -20 -20 -20 -20 -20 -20 -20 22 20 31 22 14 23 22 27 17 10 24 26 19 10 23 15 -20 -20 -20
-20 -20 -20 -20 -20 -20 -20 -20 -20 -20 -20 -20 -20 -20 -20 -20 -20 -20 -20 -20 -20 -20 -20 -20 -9 -14 -20 -20 -20 -20 20 8 21 38 24 23 22 -19 14 20 26 31 -15 5 -5 -20 -20 -20 -20
-20 -20 -20 -20 -20 -20 -20 -20 -20 -20 -20 -20 -20 -20 -20 -20 -20 -20 -20 -20 -20 -20 -20 -19 3 3 7 -19 -20 -20 21 15 15 22 24 25 -19 -20 -20 16 16 -14 -20 -20 -20 -20 -20 -20 -20
-20 -20 -20 -20 -20 -20 -20 -20 -20 -20 -20 -20 -20 -20 -20 -20 -20 -20 -20 -20 -20 -20 -20 -6 -20 8 -5 18 -7 -20 12 4 16 24 12 24 11 8 -10 24 -20 -20 -20 -20 -20 -20 -20 -20 -20
-20 -20 -20 -20 -20 -20 -20 -20 -20 -20 -20 -20 -20 -20 -20 -20 -20 -20 -20 -20 -20 -20 2 6 -20 -3 12 26 13 12 6 26 17 1 17 24 -3 -20 -1 -8 -20 -20 -20 -20 -20 -20 -20 -20 -20
-20 -20 -20 -20 -20 -20 -20 -20 -20 -20 -20 -20 -20 -20 -20 -20 -20 -20 -20 -20 -20 -20 -18 -1 0 7 -20 26 21 6 -14 -3 39 30 32 21 5 -20 -20 -20 -20 -20 -20 -20 -20 -20 -20 -20 -20
-20 -20 -20 -20 -20 -20 -20 -20 -20 -20 -20 -20 -20 -20 -20 -20 -20 -20 -20 -20 -20 -20 -20 -19 -6 -5 1 26 27 -4 21 27 22 18 38 17 -13 -20 -20 -20 -20 -8 -20 -20 -20 -20 -20 -20 -13
-20 -20 -20 -20 -20 -20 -20 -20 -20 -20 -20 -20 -20 -20 -20 -20 -20 -20 -20 -20 -20 -20 -20 -20 -20 -12 4 -13 27 27 23 16 18 23 31 23 -20 -20 -20 -20 -20 -20 -20 -20 -20 -20 -2 12 -14
-20 -20 -20 -20 -20 -20 -20 -20 -20 -20 -20 -20 -20 -20 -20 -20 -20 -20 -20 -20 -20 -20 -20 -20 -20 -17 8 6 11 29 26 16 15 31 36 38 15 24 -20 -20 -20 -20 -20 -20 -20 7 26 6 -20
-20 -20 -20 -20 -20 -20 -20 -20 -20 -20 -20 -20 -20 -20 -20 -20 -20 -20 -20 -20 -20 -20 -20 -20 -16 -20 6 8 7 27 26 39 24 24 29 24 29 -1 12 22 -20 -20 -17 3 15 -20 -20 -3 -13
-20 -20 -20 -20 -20 -20 -20 -20 -20 -20 -20 -20 -20 -20 -20 -20 -20 -20 -20 -20 -20 -20 -20 -20 -20 -13 7 10 12 19 27 28 25 4 28 -20 -7 22 6 1 -18 10 -20 20 -20 -5 8 -20 2
-20 -20 -20 -20 -20 -20 -20 -20 -20 -20 -20 -20 -20 -20 -20 -20 -20 -20 -20 -20 -20 -20 -20 -20 -20 -20 1 15 13 12 24 24 38 10 36 -18 -20 -7 4 6 -17 -20 -19 14 -20 -18 7 7 -2
-20 -20 -20 -20 -20 -20 -20 -20 -20 -20 -20 -20 -20 -20 -20 -20 -20 -20 -20 -20 -20 -20 -20 -20 -20 -20 -0 12 12 10 9 22 26 12 40 13 -12 -10 12 -3 -19 -20 -20 5 -9 -14 14 -7 -20
-20 -20 -20 -20 -20 -20 -20 -20 -20 -20 -20 -20 -20 -20 -20 -20 -20 -20 -20 -20 -20 -20 -20 -20 -14 -2 6 -1 13 14 14 14 3 37 33 32 25 -20 6 10 10 -14 -20 -20 -20 -4 3 -9 -20
-20 -20 -20 -20 -20 -20 -20 -20 -20 -20 -20 -20 -20 -20 -20 -20 -20 -20 -20 -20 -20 -20 -20 -20 -7 3 4 -20 -20 -20 -20 15 -7 11 35 28 30 -20 -20 12 -11 -6 -9 -20 -20 -20 -1 -20 -20
-20 -20 -20 -20 -20 -20 -20 -20 -20 -20 -20 -20 -20 -20 -20 -20 -20 -20 -20 -20 -20 -20 -20 -20 -4 -9 6 -9 -11 -20 -20 3 18 9 33 40 27 21 -16 -20 -20 -20 -20 -10 -20 -20 -20 -20 -20
-20 -20 -20 -20 -20 -20 -20 -20 -20 -20 -20 -20 -20 -20 -20 -20 -20 -20 -20 -20 -20 -20 -20 -20 -13 -20 12 5 -12 -20 -20 -20 -20 -5 -15 -17 3 -14 -20 -20 -20 -20 -20 6 -20 -6 -20 -20 -20
-20 -20 -20 -20 -20 -20 -20 -20 -20 -20 -20 -20 -20 -20 -20 -20 -20 -20 -20 -20 -20 -20 -20 -20 -19 -20 -20 11 -20 -20 -20 -20 -20 -20 7 -20 -20 -20 5 -20 -20 -20 -20 2 -20 -1 -3 -10 -20
-20 -20 -20 -20 -20 -9 -20 -20 -20 -16 -20 -20 -20 -20 -20 -20 -20 -20 -20 -20 -20 -20 -20 -20 3 -11 -20 7 -3 -20 -20 -20 -20 -20 -3 -20 -11 30 -20 -20 -20 -20 -20 -10 -20 12 -2 4 -20
-20 -20 -20 -20 3 -5 2 8 27 -9 -20 -20 -20 -20 -20 -20 -20 -20 -20 -20 -20 -20 -20 -20 -12 -0 -20 -7 5 -13 -20 -20 -20 -20 -20 -20 -20 -20 -20 -20 -20 -20 -20 -20 -20 -20 9 -4 26
-20 -19 7 8 -18 16 29 13 24 -12 -15 -20 -20 -20 -20 -20 -20 -20 -20 -20 -20 -20 -20 -20 -20 28 -10 1 -4 8 -20 -20 -20 -20 -20 -20 -20 -20 -19 -20 -20 -20 -20 -20 -20 -20 -20 15 21
-20 2 -20 7 -7 -14 -12 6 15 10 8 -20 -20 -20 -20 -20 -20 -20 -20 -20 -20 -20 -20 -20 -20 -20 10 11 -3 -11 -20 -20 -20 -7 -20 -20 -20 -20 -20 -20 -20 -20 -20 -20 -20 -20 -20 -10 -16
17 -19 -10 14 9 11 19 20 13 -7 7 -2 4 -16 -20 -13 -20 -20 -20 -20 -20 -20 -20 -20 -20 -20 14 13 4 4 30 -11 -20 -20 -10 -20 -20 -20 -20 -20 -20 -20 -20 -20 -20 -20 -20 -13 18
-20 17 -8 5 12 16 18 18 13 16 13 9 10 5 -12 8 7 6 -0 -19 -20 -20 -20 33 -20 -16 -9 5 19 3 29 25 -17 -20 -9 -20 -20 -20 -20 -20 -20 -20 -20 -20 -20 -20 -20 -20 9
17 13 20 15 7 19 16 22 1 7 19 6 10 19 -20 8 18 19 18 1 -15 -20 6 29 -20 -17 23 5 13 4 26 28 23 -20 -19 -20 -20 -20 -20 -20 -20 -20 -20 -20 -20 -20 -20 -15 -9
Wind_Speed
9 12 12 8 10 10 20 21 17 10 8 1 6 8 11 13 12 6 13 5 9 14 15 14 10 9 12 12 12 12 11 15 17 17 17 17 16 16 17 17 18 17 19 21 22 21 22 22 19
12 10 8 10 12 16 18 18 12 9 4 4 6 8 11 11 7 12 10 6 10 14 14 14 11 9 11 11 10 11 13 16 18 16 17 18 17 17 16 16 17 17 17 21 21 21 22 20 17
16 12 10 10 16 19 19 21 3 8 1 10 9 5 9 4 7 5 9 9 11 12 13 16 11 8 8 10 9 10 13 17 19 18 18 19 20 19 17 14 17 18 19 20 22 22 21 17 17
9 7 9 13 22 20 19 14 10 7 12 11 12 10 4 7 2 8 6 8 11 12 12 16 11 8 9 9 10 11 13 17 17 18 19 20 21 22 19 15 18 17 20 21 22 21 19 15 16
9 9 13 18 22 22 19 6 15 9 11 8 8 11 10 10 8 6 7 8 12 12 15 14 9 8 7 9 10 11 13 18 15 17 19 20 20 19 21 18 18 19 20 19 20 18 17 14 14
11 9 14 16 20 19 15 5 12 18 15 12 12 13 11 9 5 6 7 11 12 11 11 14 10 8 7 8 10 11 16 20 18 17 18 13 23 20 21 18 15 18 21 23 18 17 17 14 11
16 14 17 21 21 19 13 4 9 15 15 16 16 15 11 8 10 8 9 10 11 10 11 12 12 11 7 9 9 13 20 22 20 16 21 18 19 20 21 20 17 18 19 20 20 18 16 13 9
13 14 24 20 19 21 10 8 6 14 13 11 15 10 9 17 8 9 11 11 10 10 11 10 8 12 12 12 10 13 17 20 18 20 19 19 18 20 23 21 18 20 19 20 19 17 15 12 7
13 14 17 23 23 20 14 6 7 4 11 11 12 14 3 11 6 8 11 13 11 7 8 10 10 9 11 11 13 16 19 19 18 18 18 15 14 18 23 18 18 20 18 18 18 16 15 12 7
16 15 22 21 22 17 20 17 14 11 15 13 15 16 8 5 6 9 12 14 12 12 11 12 11 10 11 10 15 14 13 11 10 11 13 10 14 15 18 17 17 17 16 17 16 15 15 15 10
19 21 22 24 21 16 18 20 20 18 18 19 18 13 14 11 11 11 13 15 17 16 13 13 13 12 12 12 9 6 7 7 7 11 10 6 9 11 12 10 11 12 16 12 13 12 12 13 10
21 24 23 25 22 21 22 21 23 21 21 20 21 19 14 11 8 13 13 14 16 18 18 15 16 14 14 9 9 10 8 8 8 8 3 10 8 10 12 10 14 13 11 14 12 10 11 10 8
21 22 23 24 25 19 22 26 25 27 22 22 20 21 21 17 15 15 14 14 16 16 17 18 15 14 14 14 10 11 11 10 9 7 1 2 8 2 13 13 11 10 9 12 12 11 7 9 10
21 23 24 24 23 21 22 24 23 31 20 20 21 23 23 21 20 17 17 14 16 18 18 17 17 13 16 13 14 11 11 11 10 9 8 7 9 6 4 10 10 6 9 10 11 8 8 6 8
16 22 22 24 22 24 22 29 32 30 25 25 22 19 20 23 24 21 19 17 17 18 19 18 18 14 14 16 14 11 11 11 12 12 19 17 11 11 7 9 7 5 11 9 7 11 8 8 8
22 24 24 22 24 25 23 31 26 23 18 16 24 23 20 23 22 23 20 18 19 19 21 20 17 15 15 16 12 9 11 10 11 12 10 15 15 19 13 10 10 11 10 7 11 9 7 7 7
18 20 24 24 17 12 16 26 19 18 13 11 15 15 18 19 22 21 20 21 20 21 22 23 20 19 16 15 14 12 13 10 10 10 8 11 14 11 13 13 14 15 8 8 9 10 8 8 8
20 24 26 26 21 24 21 23 19 20 23 22 16 16 14 16 18 18 20 21 21 21 21 22 17 20 19 12 12 12 9 10 5 10 9 11 12 12 8 7 10 11 11 9 10 12 8 9 10
17 20 26 26 24 25 26 27 26 25 26 23 21 21 18 20 17 17 15 19 21 21 23 23 21 19 15 11 13 13 13 10 8 7 10 8 13 17 12 10 9 9 9 11 13 11 12 10 10
16 21 24 24 23 22 23 25 24 24 27 26 26 25 20 21 22 19 17 19 21 22 24 24 21 19 16 12 11 11 12 14 11 9 11 14 12 12 13 12 14 15 11 10 14 11 9 9 11
16 21 20 23 24 23 23 27 28 28 29 28 26 24 25 25 23 23 20 17 20 23 23 24 22 21 18 16 12 13 11 13 15 13 14 18 17 17 15 12 12 12 10 10 13 12 15 10 10
19 22 20 23 20 19 20 19 21 19 18 20 23 25 26 26 25 24 23 20 21 21 20 23 21 22 18 19 19 21 14 14 13 15 14 15 18 16 16 13 13 13 9 14 13 13 12 10 12
24 21 22 28 27 22 24 15 17 19 21 19 21 21 20 20 24 25 24 24 20 20 20 17 21 21 21 20 20 16 16 12 12 13 18 15 13 16 17 15 14 14 10 14 14 14 13 10 10
18 26 28 30 23 18 25 20 16 12 28 28 30 32 34 34 17 21 23 23 22 20 18 14 17 20 21 20 22 21 19 16 14 14 15 15 14 14 18 17 14 13 12 13 15 14 15 11 11
20 18 13 13 10 9 9 7 18 24 26 27 27 29 30 30 32 33 27 19 19 21 23 18 20 20 22 23 22 21 20 19 19 18 14 18 15 14 17 18 16 13 13 11 12 14 13 13 10
24 11 7 11 14 17 14 6 9 27 26 26 28 28 29 30 28 30 30 30 26 16 25 24 21 20 22 24 24 19 20 14 13 17 14 13 14 16 18 17 17 17 15 13 13 10 10 12 10
11 11 15 16 23 19 8 15 9 31 31 31 32 30 32 31 30 32 32 28 29 28 23 26 26 23 22 22 21 21 20 20 17 19 17 14 15 13 18 19 18 17 17 16 14 11 13 11 11
14 12 9 6 8 8 8 10 15 30 30 30 31 32 31 29 29 28 28 30 28 29 21 25 23 24 20 21 20 18 17 18 18 16 19 18 16 17 18 19 18 18 17 16 15 13 13 13 10
11 9 8 10 9 7 6 10 15 22 25 28 25 27 27 25 23 23 23 24 26 26 23 20 21 21 20 21 20 20 17 17 16 15 18 16 16 18 18 19 19 18 18 17 16 15 14 15 13
18 7 10 8 11 12 8 8 20 22 21 25 25 25 24 24 23 20 21 21 22 23 22 16 20 21 21 21 20 19 19 18 17 17 17 17 17 18 17 19 19 19 18 17 17 17 15 15 15
Wind_Direction
227 224 235 244 245 230 254 258 255 282 225 156 342 290 325 347 326 57 230 96 98 120 133 155 148 156 150 155 162 155 148 150 145 145 147 141 137 133 126 123 120 117 124 126 124 120 116 116 111
234 227 239 267 240 252 250 242 252 239 359 37 272 262 265 277 52 113 167 132 138 127 141 148 143 148 147 157 162 158 153 148 144 152 149 140 138 128 126 122 122 125 133 125 123 122 119 117 115
259 230 261 230 236 250 267 274 213 243 164 272 270 216 296 343 82 45 77 133 141 138 151 123 139 138 147 163 160 165 155 150 150 157 147 139 127 121 104 119 128 139 132 123 122 122 120 112 115
218 209 249 261 256 253 257 295 337 310 279 252 263 266 198 60 13 50 103 141 147 145 133 126 129 132 142 164 163 171 154 148 161 151 144 133 123 117 117 122 131 138 125 124 123 123 116 119 122
246 259 244 250 252 262 271 226 283 260 276 306 243 261 291 118 80 109 125 154 146 137 116 137 131 137 155 168 173 167 150 143 151 143 138 137 128 134 144 146 149 138 123 116 120 126 120 124 138
234 250 248 255 256 254 250 277 278 273 259 242 256 263 265 91 142 111 136 152 147 142 129 132 137 136 151 157 167 151 142 135 141 141 134 157 146 151 150 139 147 143 136 133 131 128 125 135 147
252 254 250 271 280 283 292 246 248 273 268 264 248 258 262 190 93 123 142 141 141 143 147 146 154 141 148 148 150 137 141 140 141 149 155 164 146 153 145 142 140 149 126 127 129 130 129 139 153
257 260 269 267 266 269 292 356 290 282 276 281 269 265 253 70 102 132 149 155 153 152 122 137 148 162 161 156 131 131 144 139 148 158 156 143 133 147 147 159 165 131 128 131 131 129 132 135 143
244 260 255 258 264 274 275 252 259 271 282 284 272 241 305 98 127 150 158 163 148 138 149 149 164 166 149 157 134 124 132 144 144 141 126 141 141 146 155 156 137 130 132 131 132 130 127 128 148
235 247 250 268 287 302 305 300 293 286 274 261 254 251 160 184 197 200 189 175 176 176 171 168 172 163 157 153 152 138 138 137 139 135 143 185 154 149 150 135 135 131 131 128 130 128 135 161 159
234 247 271 284 290 297 280 281 282 273 255 260 270 260 243 186 200 229 209 194 179 179 165 177 163 172 161 153 147 140 143 139 134 141 175 172 163 151 137 144 146 146 147 144 144 148 169 167 167
251 257 265 280 284 285 274 279 276 276 272 276 282 286 283 277 215 216 219 210 179 175 166 182 173 167 162 157 153 154 144 144 141 153 244 162 159 158 142 157 160 157 166 148 156 175 187 171 125
264 271 270 272 277 264 274 269 273 268 267 269 265 266 267 263 248 228 228 205 186 183 177 176 192 182 168 161 162 159 153 149 138 129 127 349 156 174 155 160 159 166 178 167 169 185 166 135 136
285 286 288 284 275 265 260 267 271 264 254 251 251 254 254 249 245 226 221 223 193 183 184 184 187 191 165 170 170 163 156 152 145 139 162 250 160 168 179 166 154 161 183 179 177 153 142 112 113
296 281 273 266 264 260 261 262 253 265 259 253 248 243 246 243 242 236 230 203 205 189 182 187 182 184 185 168 171 167 167 164 158 161 178 189 162 172 161 156 164 184 177 205 109 125 115 116 120
277 273 271 269 259 243 237 255 258 263 249 252 231 238 249 251 237 230 227 215 207 195 184 183 187 192 185 184 170 168 169 168 160 168 186 184 169 171 170 178 168 187 199 131 124 124 123 121 120
272 264 274 275 280 226 241 260 270 283 296 264 262 256 242 244 238 228 221 216 206 192 185 186 195 179 198 175 169 178 171 166 169 156 169 176 172 186 180 181 181 187 141 135 144 138 145 138 126
321 306 302 296 302 314 295 271 272 282 279 267 267 261 258 254 249 226 217 215 197 190 188 186 186 179 190 169 179 165 177 168 152 161 169 174 174 182 200 177 173 173 167 159 149 146 147 146 135
300 288 285 286 288 280 273 277 275 276 273 275 266 256 253 264 265 255 220 211 200 195 185 185 179 191 187 187 178 172 170 167 154 154 169 177 195 178 190 176 153 190 179 169 134 143 152 142 123
297 304 296 303 293 284 276 273 274 261 259 259 262 267 256 258 260 255 235 206 204 198 187 188 180 189 193 177 191 191 178 173 166 164 175 189 187 186 192 181 168 202 174 171 144 147 148 145 164
309 302 301 310 317 301 287 274 265 261 258 263 265 260 259 260 261 257 244 215 209 199 192 193 177 186 187 183 175 193 198 179 166 178 178 183 197 184 192 188 178 192 174 162 153 170 165 164 187
309 318 299 291 285 277 282 290 287 288 273 242 234 236 245 252 253 255 258 234 205 203 200 195 179 184 185 186 182 196 200 188 181 177 179 181 184 182 188 184 190 183 191 153 168 178 181 176 185
303 312 294 279 273 269 264 251 261 249 251 257 257 259 260 250 246 251 245 247 228 193 199 192 180 178 185 191 197 195 201 192 184 177 178 179 186 184 192 183 194 181 200 159 172 188 199 188 185
309 303 293 261 247 242 250 248 251 4 14 3 359 1 357 354 280 248 254 256 237 179 184 179 190 179 186 198 206 199 196 188 183 190 173 182 181 184 191 188 191 186 198 177 177 194 196 191 199
337 328 317 291 199 227 357 270 33 19 18 9 359 351 348 354 345 347 333 260 247 186 182 176 193 192 185 192 208 204 197 192 189 184 186 179 180 186 185 188 186 190 194 192 184 192 198 205 206
300 324 319 308 318 309 286 339 42 19 9 12 1 355 351 349 344 334 331 327 317 220 185 186 187 197 189 193 200 204 201 192 199 186 185 186 184 188 184 188 184 189 190 196 190 194 201 206 214
328 303 313 267 267 269 327 42 58 11 7 4 6 2 356 350 341 334 328 323 316 310 183 182 188 194 201 196 195 201 201 195 199 182 185 187 193 186 188 185 185 189 190 196 192 200 197 207 207
282 302 324 312 285 307 80 59 4 1 2 359 3 3 357 345 341 336 329 323 314 305 287 175 187 192 195 207 195 194 207 202 201 185 188 188 189 192 185 187 190 188 194 193 199 196 203 203 206
320 328 323 293 253 294 325 70 11 5 6 1 351 358 356 343 335 330 322 316 317 313 309 182 182 193 191 198 201 189 195 211 206 200 189 189 189 193 184 186 191 191 193 195 198 205 203 207 207
346 347 341 316 305 315 289 85 21 13 4 3 354 351 359 341 333 328 324 324 327 334 321 277 183 189 195 202 199 192 187 197 206 206 192 197 191 190 191 189 190 196 195 197 200 204 207 209 206